User: anonymous   Login
Location: Bismarck
(46.7731°N, 100.8200°W)
Time: 05:47:31
(UTC-05:00)
Language:

Cosmos 2219 Rocket - Orbit

View from above orbital plane
View from above orbital plane
View from above satellite
View from above satellite

Ground track
Ground track

The orbit data is extracted from the following two-line orbital elements,

1 22220U 92076B   17142.97107404 +.00000114 +00000-0 +81175-4 0  9991
2 22220 070.9988 112.3282 0014554 305.4276 110.0604 14.16413717266872
Epoch (UTC): 22 May 2017 23:18:20
Eccentricity: 0.0014554
inclination: 70.9988°
perigee height: 827 km
apogee height: 848 km
right ascension of ascending node: 112.3282°
argument of perigee: 305.4276°
revolutions per day: 14.16413717
mean anomaly at epoch: 110.0604°
orbit number at epoch: 26687

The dashed part of the orbit path shows where the satellite is in the earth's shadow,  

DLR